Garden City, IA (50102)

8:51 PM CDT on August 29, 2015 (GMT -0500)
MesoWest | | Change Station
CLOSE
Current Station
Personal Weather Station
Location: Garden City, IA
Elevation: 1200 ft
Nearby Weather Stations

Elev 1200 ft 42.24 °N, 93.40 °W | Updated 56 minutes ago

Overcast
Overcast
68.0 °F
Feels Like 68.0 °F
N
0.0
Wind Variable Wind from North
Gusts 0.0 mph

Today
High -- | Low -- °F
--% Chance of Precip.
Yesterday
High -- | Low -- °F
Precip. -- in
6:35 AM 7:52 PM
Full, 100% visible
Pressure 30.06 in
Visibility 10.0 miles
Clouds Overcast 2300 ft
Dew Point Not available.
Humidity Not available.
Rainfall in
Snow Depth Not available.
UV 0 out of 12
Pollen 8.40 out of 12
Air Quality Not available.
Flu Activity Not available.
METAR KIFA 300135Z AUTO 00000KT 10SM OVC023 19/18 A3006 RMK AO2 T01920181
Pressure 30.06 in
Visibility 10.0 miles
Clouds Overcast 2300 ft
Dew Point Not available.
Humidity Not available.
Rainfall in
Snow Depth Not available.
UV 0 out of 12
Pollen 8.40 out of 12
Air Quality Not available.
Flu Activity Not available.
METAR KIFA 300135Z AUTO 00000KT 10SM OVC023 19/18 A3006 RMK AO2 T01920181

10-Day Weather Forecast

×

Almanac

Astronomy

Aug. 29, 2015 Rise Set
Actual Time
Civil Twilight
Nautical Twilight
Astronomical Twilight
Moon
Length of Visible Light
Length of Day
Tomorrow will be .
, % of the Moon is Illuminated

Today's Extremes

State Highs State Lows

Community

WunderPhotos

Upload Photos

1,850,826 photos uploaded!

WunderBlogs® & News

Nearby

Air Quality

  Air Quality AQ Index Pollutant
Not available.

Snow Depth

Station Depth Elevation

Earthquake Activity

City Distance Mag. Time & Date
Minimum magnitude displayed is 2.5.

Coastal Water Temperatures

Place Temperature

Stations

Nearby Weather Stations

Station Location Temp. Windchill Dew Point Humidity Wind Precip. Elev Updated Type